Regional Weather Roundup
Issued by NWS State College, PA

Home | Current Version | Previous Version | Graphics & Text | Print | Product List | Glossary Off
Versions: 1 2 3 4 5 6 7 8 9 10 11 12 13 14 15 16 17 18 19 20 21 22 23 24 25 26 27 28 29 30 31 32 33 34 35 36 37 38 39 40 41 42 43 44 45 46 47 48 49 50

000
ASUS41 KCTP 010603
RWRCTP

REGIONAL WEATHER ROUNDUP
NATIONAL WEATHER SERVICE STATE COLLEGE PA
200 AM EDT SUN MAY 01 2016

Note: "fair" indicates few or no clouds below 12,000 feet with no
significant weather and/or obstructions to visibility.

* = STATION THAT DOES NOT REPORT PRECIPITATION /E.G. RAIN...SNOW...ETC/
    THUNDER OR FOG.

PAZ002>004-007>009-013>016-020>023-029>032-010700-
WESTERN PENNSYLVANIA

CITY           SKY/WX    TMP DP  RH WIND       PRES   REMARKS
ERIE           LGT RAIN  51  48  89 E12       29.95F FOG
MEADVILLE      LGT RAIN  48  48 100 VRB7      29.93F
FRANKLIN*      CLOUDY    48  46  93 SE13G18   29.97F
NEW CASTLE     LGT RAIN  53  51  93 SE7       29.95F
BEAVER COUNTY  NOT AVBL
BUTLER*        CLOUDY    52  48  87 E9        29.98F
PITTSBURGH INT LGT RAIN  54  52  93 SE6       29.95F
PITTSBURGH     LGT RAIN  53  51  93 SE7       29.95F FOG
INDIANA*       MOCLDY    52  50  93 S12G20    30.02F FOG
LATROBE        LGT RAIN  54  54 100 SE7       29.99F
WASHINGTON CO* CLOUDY    55  54  94 S3        29.96F
$$

PAZ004>006-010>012-017>019-024>028-033>037-041-042-045-046-049>053-010700-
CENTRAL PENNSYLVANIA

CITY           SKY/WX    TMP DP  RH WIND       PRES   REMARKS
BRADFORD       RAIN      46  43  89 SE9       30.01F FOG
DUBOIS         LGT RAIN  47  45  93 SE13      30.00F FOG
CLEARFIELD     RAIN      48  46  93 SE3       30.05F FOG
JOHNSTOWN      HVY RAIN  47  44  90 SE8       30.03F FOG
ALTOONA        LGT RAIN  49  46  90 S12       30.07F FOG
STATE COLLEGE  HVY RAIN  49  47  93 S5        30.08F
WILLIAMSPORT   LGT RAIN  50  46  86 NE13      30.11F
SELINSGROVE    LGT RAIN  52  48  86 S5        30.13F
FT INDIANTOWN  CLOUDY    50  47  89 VRB6      30.15F
CAPITAL CITY   LGT RAIN  53  47  79 SE9       30.14F
HARRISBURG     LGT RAIN  53  46  77 SE10      30.13F
YORK           CLOUDY    51  47  86 VRB7      30.14F
$$

PAZ038>040-043-044-047-048-054-055-060>062-067>071-010700-
EASTERN PENNSYLVANIA

CITY           SKY/WX    TMP DP  RH WIND       PRES   REMARKS
SCRANTON       LGT RAIN  50  44  80 NW5       30.15S
MOUNT POCONO   LGT RAIN  44  39  82 SE8       30.14F
ALLENTOWN      CLOUDY    52  38  58 S9        30.17F
QUAKERTOWN*    CLOUDY    48  37  66 S3        30.19F
READING        CLOUDY    50  40  68 S7        30.16F
LANCASTER      CLOUDY    49  41  74 SE9       30.16F
COATESVILLE    CLOUDY    46  41  81 MISG      30.19F
POTTSTOWN      CLOUDY    49  43  80 S5        30.19F
BLUE BELL      CLOUDY    46  37  71 SE3       30.19F
DOYLESTOWN     CLOUDY    47  36  65 SE5       30.18F
WILLOW GROVE   NOT AVBL
NORTH PHILA    CLOUDY    50  39  66 SE3       30.22F
PHILADELPHIA   LGT RAIN  51  37  58 CALM      30.21F
$$




USA.gov is the U.S. government's official web portal to all federal, state and local government web resources and services.